Regional Weather Roundup
Issued by NWS

Home | Current Version | Previous Version | Graphics & Text | Print | Product List | Glossary Off
Versions: 1 2 3 4 5 6 7 8 9 10 11 12 13 14 15 16 17 18 19 20 21 22 23 24 25 26 27 28 29 30 31 32 33 34 35 36 37 38 39 40 41 42 43 44 45 46 47 48 49 50

000
ASUS43 KLSX 021407
RWRMO

WEATHER SUMMARY FOR MISSOURI
NATIONAL WEATHER SERVICE SPRINGFIELD MO
900 AM CDT TUE SEP 02 2014

NOTE: "FAIR" INDICATES FEW OR NO CLOUDS BELOW 12,000 FEET WITH NO
       SIGNIFICANT WEATHER AND/OR OBSTRUCTIONS TO VISIBILITY.
       CURRENT SKY AND/OR WEATHER CONDITIONS ARE NOT AVAILABLE FOR
       CHILLICOTHE AND FARMINGTON.

MOZ001>031-035>038-043-044-053-054-021500-
...NORTHERN AND WESTERN MISSOURI...

CITY           SKY/WX    TMP DP  RH WIND       PRES   REMARKS
KANSAS CTY INT CLOUDY    67  67 100 W5        29.99R FOG
KANSAS C DTWN  FOG       71  69  93 CALM      29.98R VSB 3/4
LEE`S SUMMIT   CLOUDY    70  68  93 NW3       29.99R FOG
ST JOSEPH      PTSUNNY   66  64  93 CALM      29.98S
CHILLICOTHE      N/A     69  66  90 CALM      29.98S
KIRKSVILLE     CLOUDY    68  67  96 W3        29.98R

$$
MOZ066>068-077>081-088>096-101>105-021500-
...SOUTHWEST MISSOURI...

CITY           SKY/WX    TMP DP  RH WIND       PRES   REMARKS
SPRINGFIELD    CLOUDY    68  65  90 SW14      30.02F
JOPLIN         LGT RAIN  67  65  93 SE9       29.97F

$$
MOZ032>034-039>042-045>050-055>058-069>072-021500-
...CENTRAL MISSOURI...

CITY           SKY/WX    TMP DP  RH WIND       PRES   REMARKS
COLUMBIA       CLOUDY    71  70  96 W8        29.97R
JEFFERSON CITY CLOUDY    72  70  93 W5        29.97R
ROLLA            N/A    N/A N/A N/A MISG      29.97R
SEDALIA        CLOUDY    72  69  90 SW6       29.98R
OSAGE BEACH    CLOUDY    70  64  83 SW8       29.98R

$$
MOZ051-052-059>065-021500-
...EAST CENTRAL MISSOURI...

CITY           SKY/WX    TMP DP  RH WIND       PRES   REMARKS
ST LOUIS INTL  CLOUDY    73  69  87 W6        29.95R
SPIRIT OF STL  CLOUDY    71  69  93 CALM      29.94R
ST CHARLES     CLOUDY    71  69  93 SW3       29.94R

$$
MOZ072>076-082>087-097>100-106>115-021500-
...SOUTH CENTRAL AND SOUTHEAST MISSOURI...

CITY           SKY/WX    TMP DP  RH WIND       PRES   REMARKS
CAPE GIRARDEAU CLOUDY    77  71  82 SW10G18   29.96S
FARMINGTON     CLOUDY    73  70  88 SW5       29.98R
POPLAR BLUFF   LGT RAIN  73  68  84 SW8       29.96F
WEST PLAINS    LGT RAIN  67  64  90 SW9       30.07R

$$



USA.gov is the U.S. government's official web portal to all federal, state and local government web resources and services.